Location: Alladorf
(49.9620°N, 11.3790°E)
Time: 21:29:32
(UTC+00:00)

Cosmos 1844 Rocket - Pass Details

Date: 29 November 2020
Orbit: 824 x 845 km, 71.0° (Epoch: 25 January)

Event Time Altitude Azimuth Distance (km) Brightness Sun altitude
Rises 05:54:23 0° 231° (SW) 3,383 5.6 -8.5°
Reaches altitude 10° 05:56:57 10° 239° (WSW) 2,455 4.8 -8.1°
Maximum altitude 06:02:16 41° 309° (NW) 1,203 3.1 -7.4°
Drops below altitude 10° 06:07:39 10° 20° (NNE) 2,477 5.1 -6.6°
Sets 06:10:15 0° 27° (NNE) 3,416 5.9 -6.2°
